Temperature
24 23 22 22 21 21 23 23 24 23 23 22 22 22 21 20 20 18 18 19 19 19 19 19 19 19 19 19 19 19 19 19 19 19 19 19 19 19 19 18 18 18 18 18 18 18 18 18 18
24 23 22 22 22 21 23 24 23 23 23 23 22 21 21 20 19 19 18 19 19 19 19 19 19 19 19 19 19 19 19 19 19 19 19 19 19 19 19 18 18 18 18 18 18 18 18 18 18
24 23 23 22 22 22 23 24 24 24 24 23 22 21 21 20 19 19 19 19 19 19 19 19 19 19 19 19 19 19 19 19 19 19 19 19 19 19 19 19 18 18 18 18 18 18 18 18 18
24 24 24 22 23 24 25 25 25 24 23 23 22 21 20 20 20 19 19 19 19 19 19 19 19 19 19 19 19 19 19 19 19 19 19 19 19 19 19 18 18 18 18 18 18 18 18 18 18
25 24 23 23 24 25 25 25 25 24 23 22 21 20 20 20 20 20 20 20 20 19 19 19 19 19 19 19 19 19 19 19 19 19 19 19 19 19 19 18 18 18 18 18 18 18 18 18 18
25 24 23 23 25 26 26 25 24 23 23 22 21 20 20 20 20 20 20 20 20 20 20 19 19 19 19 19 19 19 19 19 19 19 19 19 19 19 19 19 19 19 18 18 18 18 18 18 18
26 23 24 25 25 25 26 25 24 23 23 23 22 20 20 20 20 20 20 20 20 20 20 20 19 19 19 19 19 19 19 19 19 19 19 19 19 19 19 19 19 19 18 18 18 18 18 18 18
27 24 25 25 25 25 26 26 25 24 23 23 22 21 20 20 20 20 20 20 20 20 20 20 20 20 19 19 19 19 19 19 19 19 19 19 19 19 19 19 19 18 18 18 18 18 18 18 18
28 24 24 25 25 25 26 25 25 24 23 23 22 21 21 21 20 20 20 19 19 19 19 19 19 19 19 19 19 19 19 19 19 19 18 18 18 19 19 18 18 18 18 18 18 18 18 18 18
28 24 25 27 26 26 26 25 25 24 23 22 22 21 21 21 21 20 20 20 19 19 19 19 19 19 19 19 19 19 19 19 19 18 18 18 18 19 19 18 18 18 18 18 18 18 18 18 18
28 27 28 28 28 27 26 26 25 24 22 22 22 21 21 21 21 21 20 20 20 20 20 19 19 19 19 19 19 19 19 19 19 18 18 18 18 18 19 18 18 19 18 18 18 18 18 18 18
28 29 29 28 28 27 27 26 25 24 23 23 23 22 21 21 21 21 21 20 20 20 20 20 19 19 19 19 19 19 19 19 19 18 18 18 18 18 18 18 18 18 18 18 18 18 18 18 18
28 28 29 28 28 28 27 26 25 24 24 23 23 22 22 21 21 21 21 21 20 20 20 20 20 19 19 19 19 19 19 19 19 19 18 19 18 18 18 18 18 18 18 18 18 18 18 18 18
28 29 28 28 28 27 26 25 25 24 24 23 23 22 22 22 22 21 21 21 20 20 20 20 20 20 19 19 19 19 19 19 19 19 19 19 19 19 18 18 18 18 18 18 18 18 18 18 18
29 27 27 28 28 27 26 25 24 24 24 23 23 23 23 22 22 22 22 21 21 21 20 20 20 20 20 20 19 19 19 19 19 19 19 19 19 19 19 18 18 18 18 18 18 18 18 18 18
28 26 26 27 27 27 25 23 24 25 24 24 23 23 23 23 22 22 22 22 21 21 21 20 20 20 20 20 19 19 19 19 19 19 19 19 19 19 19 18 18 18 18 18 18 18 18 18 18
26 25 26 27 28 27 25 24 25 25 25 24 24 24 23 23 23 22 22 22 22 21 21 21 20 20 20 20 19 19 19 19 19 19 19 19 19 19 18 18 18 18 18 18 18 18 18 18 18
26 26 26 26 28 27 25 24 25 25 25 24 24 24 23 23 23 23 22 22 22 22 21 21 20 20 20 20 19 19 19 19 19 19 19 19 19 18 18 18 18 18 18 18 18 18 18 18 18
27 27 27 27 28 27 26 25 25 25 25 24 24 24 24 23 23 23 23 22 22 22 21 21 21 20 20 20 20 19 19 19 19 19 19 19 18 18 18 18 18 18 18 18 18 18 18 18 18
27 27 27 27 28 27 26 25 25 25 25 25 24 24 24 23 23 23 23 22 22 22 21 21 21 20 20 20 20 19 19 19 19 19 19 19 18 18 18 18 18 18 18 18 18 18 18 18 17
27 27 27 27 28 27 26 25 25 25 25 25 25 25 24 24 23 23 23 22 22 22 22 21 21 21 20 20 20 19 19 19 19 19 19 18 18 18 18 18 18 18 18 18 18 18 18 18 17
27 28 28 28 26 25 25 23 24 24 24 25 25 25 24 24 24 23 23 23 22 22 22 22 21 21 20 20 19 19 19 19 19 19 18 18 18 18 18 18 18 18 18 18 18 18 18 18 18
28 29 28 28 25 24 25 23 23 23 23 24 24 25 24 24 24 24 23 23 23 22 22 22 21 21 20 20 20 19 19 19 19 18 18 18 18 18 18 18 18 18 18 18 18 18 17 17 17
29 27 26 24 23 24 25 24 24 23 24 24 24 25 25 24 24 24 23 23 23 22 22 21 21 21 20 20 19 19 19 19 19 19 19 18 18 18 18 18 18 18 18 18 18 18 17 17 17
27 24 23 23 22 23 24 24 23 25 25 25 25 25 25 25 24 24 23 23 23 22 22 21 21 21 20 20 20 19 19 19 19 19 19 18 18 18 18 18 18 18 18 18 18 17 17 17 17
27 24 23 23 23 23 24 24 24 26 26 27 26 26 25 25 24 24 24 23 23 22 22 22 21 21 20 20 20 19 19 19 19 19 18 18 18 18 18 18 18 18 18 18 18 17 17 17 17
28 25 23 22 23 23 23 24 25 25 25 25 25 25 24 24 24 24 24 24 23 23 22 22 22 21 21 20 20 19 19 19 19 18 18 18 18 18 18 18 18 18 18 18 18 17 17 17 17
27 25 22 22 22 23 24 24 23 24 24 24 24 24 24 24 24 24 24 24 23 23 23 22 22 21 21 20 20 19 19 19 19 18 18 18 18 18 18 18 18 18 18 18 18 17 17 17 17
28 26 22 20 21 22 23 23 25 24 24 24 24 24 24 24 24 24 24 24 23 23 22 22 21 21 21 20 20 19 19 19 19 19 18 18 18 18 18 18 18 18 17 17 17 17 17 17 17
27 26 22 22 22 20 21 23 25 24 24 24 24 25 25 24 24 24 24 24 23 23 22 22 21 21 21 20 20 20 19 19 19 19 18 18 18 18 18 18 17 17 17 17 17 17 17 17 16
Wind_Speed
11 8 4 1 4 6 8 8 10 11 8 10 13 12 11 9 6 7 2 6 7 6 8 11 12 13 13 13 13 13 13 13 13 14 14 15 15 16 16 16 17 17 17 17 17 17 17 17 17
7 6 2 2 6 7 7 9 15 14 12 13 14 15 12 9 7 8 4 5 7 7 8 11 12 12 13 13 13 13 13 13 14 14 14 15 15 16 16 16 16 16 16 16 16 16 16 16 16
6 4 1 4 5 7 8 12 16 16 13 11 8 9 7 6 6 6 6 8 7 7 9 11 13 12 12 13 13 13 13 13 13 14 14 14 15 15 15 15 15 15 15 15 15 14 14 14 14
3 1 3 6 8 8 11 14 17 17 13 12 10 8 6 6 5 8 11 10 9 7 9 11 12 12 12 12 12 13 13 13 13 13 14 14 14 14 14 14 14 14 14 14 14 13 13 13 13
1 3 5 7 9 10 13 16 15 14 9 12 13 11 7 5 11 13 11 11 10 6 8 11 12 12 13 13 12 12 13 13 13 14 14 14 14 14 14 13 13 13 12 12 12 11 11 11 11
2 4 6 7 10 11 12 16 19 19 17 14 13 11 5 6 11 12 11 9 9 8 7 10 12 12 12 12 12 12 13 13 13 14 13 13 13 13 12 12 12 12 12 11 10 9 9 8 8
4 4 6 8 11 12 12 13 15 16 15 9 8 7 5 5 9 11 10 9 8 8 7 7 9 10 11 11 12 12 12 12 13 13 13 13 13 12 11 11 11 10 10 10 9 8 7 6 6
4 4 5 7 11 10 11 10 14 16 11 11 7 7 6 7 9 10 9 8 8 6 5 5 7 8 8 9 11 11 11 11 11 12 12 12 11 11 11 10 10 10 9 8 8 6 6 5 6
4 5 5 7 9 10 14 16 11 11 12 8 7 8 10 12 12 11 9 6 6 6 4 4 5 6 7 8 9 9 10 10 9 9 10 8 6 7 7 8 9 8 8 7 6 5 4 4 4
6 6 8 8 10 13 16 17 11 10 13 11 12 12 13 12 12 11 9 8 7 7 6 4 5 5 7 7 7 6 6 5 5 5 6 6 5 5 6 7 8 7 6 5 5 4 3 3 2
6 7 8 9 12 13 14 12 10 14 11 13 16 15 13 12 10 9 8 8 8 8 7 6 6 6 5 5 6 5 4 4 4 4 5 6 5 4 4 3 4 4 4 2 2 2 2 1 2
7 7 9 10 12 13 13 11 10 11 13 16 16 15 13 12 10 9 8 7 6 7 7 6 6 6 5 6 5 5 4 3 3 5 7 6 4 3 3 3 3 3 2 2 1 2 2 2 3
8 7 10 13 14 13 14 13 12 11 14 15 15 14 13 12 9 8 8 7 6 6 6 6 6 7 6 5 4 4 3 4 4 5 5 7 4 3 3 3 3 2 2 2 2 2 1 1 1
7 10 11 13 14 14 17 12 10 12 15 14 14 12 12 11 10 8 7 7 7 7 7 6 6 6 6 5 4 3 4 4 4 4 5 6 6 4 3 3 2 2 3 3 3 2 1 1 2
8 10 7 8 10 10 14 8 10 15 15 14 13 12 11 10 10 10 9 9 8 8 7 7 7 6 6 5 4 4 4 4 3 3 5 6 6 5 4 3 2 2 3 3 2 2 2 2 3
6 7 4 3 7 7 10 7 9 13 14 13 12 12 11 10 10 10 9 9 9 9 7 7 7 6 5 5 4 3 4 4 3 3 4 4 5 5 4 3 2 2 3 3 2 2 3 2 3
3 4 5 5 6 7 6 7 11 12 14 13 12 11 11 10 9 8 10 10 9 9 8 7 6 6 6 5 4 4 3 3 3 3 3 3 3 5 4 2 2 3 2 2 3 3 3 3 3
3 3 4 6 6 7 7 7 13 13 13 13 11 10 10 11 10 10 10 10 9 9 8 7 6 6 5 4 3 3 2 1 2 2 2 3 2 4 5 3 2 3 2 2 2 3 2 3 3
4 3 3 5 6 6 8 9 13 13 12 12 11 11 10 10 9 10 10 10 9 8 7 7 6 5 4 3 3 2 1 1 1 1 2 3 3 4 4 3 2 2 2 2 2 3 3 2 3
2 2 3 2 5 5 6 7 11 13 15 15 14 13 12 10 8 9 9 10 9 8 7 7 6 6 5 4 3 3 3 2 2 1 2 3 3 4 4 3 2 2 2 2 2 3 2 1 2
3 5 5 4 1 4 6 2 7 8 9 10 11 12 12 14 14 12 11 10 9 9 8 8 7 6 5 5 3 3 2 2 2 1 1 1 2 3 3 4 3 2 2 2 2 2 3 2 1
5 5 7 7 6 2 5 3 6 8 8 10 11 10 12 13 12 12 11 10 10 9 8 7 7 6 5 5 4 5 4 3 2 2 1 0 1 2 2 3 3 3 2 2 2 2 2 3 1
6 4 5 5 5 2 1 4 6 6 9 12 12 13 14 13 14 13 12 11 10 9 8 7 7 6 5 5 5 5 3 3 2 2 1 0 0 1 1 2 3 3 2 2 2 3 2 2 2
4 5 6 5 5 1 4 5 5 7 13 13 12 12 13 14 14 12 10 9 8 8 8 7 7 6 5 5 5 5 5 4 4 3 2 1 0 1 0 1 2 2 2 2 2 2 2 2 2
6 7 4 4 3 5 4 3 7 8 10 14 15 15 14 13 13 13 12 10 9 9 9 8 8 6 6 5 4 4 5 4 4 4 3 2 1 0 1 1 1 2 2 2 2 2 2 2 2
5 11 8 6 5 4 3 3 7 6 8 10 11 12 13 13 13 13 13 12 11 11 10 9 9 7 6 6 5 4 4 3 3 3 3 2 2 2 1 1 2 2 2 2 2 2 1 2 1
5 4 9 8 3 1 4 4 6 3 5 8 10 11 12 12 12 13 12 12 12 11 11 11 10 8 7 6 5 4 3 3 3 2 2 2 1 1 2 2 2 2 2 2 2 2 1 2 2
7 8 7 6 5 2 4 3 4 4 5 7 10 12 12 11 10 10 11 11 11 10 10 10 9 9 7 6 6 5 4 4 3 3 2 1 1 1 2 2 2 2 2 2 2 2 2 3 2
2 4 6 5 6 6 3 6 6 9 8 8 9 11 12 11 11 10 10 10 10 9 9 9 9 8 7 7 6 5 4 4 3 3 2 2 2 2 2 2 3 2 2 2 3 3 3 4 3
5 6 7 6 3 5 5 6 5 7 7 9 10 9 9 9 9 10 10 10 10 10 9 9 9 9 8 8 7 6 5 4 4 3 2 2 2 2 2 3 3 3 2 3 3 3 3 4 3
Wind_Direction
163 164 165 167 59 61 80 89 90 82 70 68 75 81 79 63 83 114 155 125 116 103 100 97 93 91 89 89 89 89 89 91 93 98 103 107 108 108 108 107 107 107 107 108 110 111 113 117 118
161 161 172 54 76 83 79 93 89 90 108 101 81 79 74 68 81 110 118 125 115 109 105 103 99 96 93 91 92 92 93 95 97 101 106 110 111 112 111 110 110 110 110 110 112 113 114 116 119
174 181 120 69 88 110 109 100 101 97 93 90 87 67 65 89 101 122 140 133 115 105 106 108 103 100 97 94 93 93 95 98 100 103 107 111 114 114 113 113 113 113 114 114 115 116 116 117 118
160 115 49 79 93 109 116 115 110 100 78 74 88 75 66 92 110 129 133 127 114 105 111 112 104 103 103 100 98 96 97 99 103 105 108 110 113 114 114 115 115 115 116 119 119 120 120 121 121
117 83 70 81 93 102 111 113 108 96 85 87 91 98 90 85 115 128 130 127 120 112 115 117 110 109 109 106 104 101 100 101 102 106 108 112 115 117 117 117 116 117 121 124 125 124 125 126 126
72 69 83 92 100 101 109 111 103 100 105 103 101 102 99 118 124 132 131 128 127 125 120 119 116 115 113 111 111 110 108 107 107 108 110 114 118 120 120 121 121 122 124 127 129 133 132 130 132
118 95 110 115 110 110 115 116 112 116 114 108 114 97 108 129 136 135 134 130 126 124 120 117 123 122 121 119 117 116 115 114 113 115 117 117 120 123 124 125 127 128 130 133 136 139 139 134 135
150 103 93 108 113 114 122 112 121 119 112 125 116 112 137 154 141 130 130 126 125 122 122 126 127 129 129 128 125 123 121 119 119 121 122 124 124 126 127 130 132 133 134 138 141 146 146 139 139
129 98 129 138 127 125 117 112 110 105 114 111 100 121 143 141 131 123 122 122 131 135 141 142 144 145 142 141 135 132 128 126 126 127 125 127 128 132 136 138 140 138 139 142 146 153 152 147 144
128 138 167 158 141 135 126 123 125 113 109 108 111 118 130 130 130 130 135 141 150 159 172 165 162 162 160 150 144 145 137 138 139 142 144 142 147 156 151 148 150 148 149 154 161 166 166 165 168
127 144 145 133 136 131 125 122 117 122 126 140 140 141 140 135 135 136 142 148 156 164 164 165 170 172 164 153 155 162 163 165 166 167 164 158 155 153 149 150 153 158 159 173 173 189 211 184 172
102 121 123 127 127 122 126 123 117 126 145 150 147 146 142 141 147 149 150 154 148 148 155 159 162 157 161 157 162 168 167 166 175 178 165 154 149 150 153 160 172 163 170 175 197 203 217 208 187
97 103 103 114 118 120 118 123 123 132 142 146 145 142 146 151 156 159 155 152 145 144 141 143 138 137 142 142 157 150 154 156 162 159 155 149 145 145 147 152 161 168 173 179 172 188 199 208 190
119 108 113 118 115 121 122 123 116 141 145 146 146 148 154 157 157 154 151 147 149 148 140 136 130 133 133 137 140 140 149 147 134 128 137 141 143 143 138 132 134 151 166 167 155 160 137 114 109
107 102 98 121 117 125 116 110 140 154 151 151 153 157 160 160 158 160 162 156 154 150 143 142 140 133 130 136 140 132 137 136 125 127 134 134 132 135 137 131 139 157 149 141 131 113 105 99 97
78 88 120 174 133 136 113 144 166 161 156 159 162 164 162 165 168 167 162 156 152 149 150 154 151 141 138 135 129 125 127 132 133 136 140 139 133 137 130 126 143 151 127 118 118 108 96 88 99
57 125 162 182 175 151 126 161 178 175 165 168 170 169 166 167 169 167 162 159 154 153 154 156 151 150 151 144 135 130 123 129 134 134 145 154 139 132 126 129 135 120 108 105 113 105 112 111 106
207 167 175 190 194 155 146 170 174 183 174 173 173 171 170 172 176 168 160 159 154 151 151 151 151 155 153 138 121 111 101 117 122 125 146 156 140 125 123 126 124 111 102 90 94 105 102 117 114
170 173 214 215 191 154 160 170 176 184 180 178 176 174 176 180 176 164 160 157 152 151 150 150 148 154 145 134 137 134 151 159 142 126 136 134 134 129 124 118 119 107 111 117 111 110 104 104 107
181 195 231 214 168 147 163 184 185 185 189 184 180 180 179 174 170 166 163 162 163 163 160 157 158 158 158 157 155 152 155 165 147 110 108 137 139 139 133 128 134 130 119 104 102 107 115 126 112
246 182 190 171 145 87 111 161 205 197 195 190 186 182 177 175 175 173 168 169 168 168 169 169 165 162 165 156 131 111 84 65 67 74 86 177 157 145 135 136 138 143 146 150 150 134 130 149 163
247 217 176 154 131 191 147 183 241 201 194 196 194 189 184 183 176 173 169 170 174 177 172 164 162 162 163 153 141 142 145 147 167 159 170 209 116 124 127 133 133 145 148 154 167 145 140 136 150
209 196 164 163 145 110 132 146 256 189 196 206 198 194 187 178 174 173 172 172 173 170 166 162 158 158 157 152 151 145 146 155 145 128 130 144 35 75 109 124 129 146 144 146 138 122 129 137 149
146 75 53 57 80 112 223 160 240 205 201 198 196 191 183 174 170 168 165 157 158 159 157 153 149 154 154 153 148 150 156 156 138 135 168 190 240 319 15 111 127 137 135 139 147 139 133 141 143
108 98 51 12 9 252 244 170 233 222 195 186 184 186 181 173 169 167 165 162 162 161 161 158 155 155 155 151 149 153 162 160 160 165 175 173 180 227 261 136 140 141 144 139 133 132 131 141 141
169 140 156 179 208 271 322 231 254 215 183 172 167 169 170 172 173 174 175 170 169 167 165 163 162 160 160 159 162 155 151 148 149 154 161 175 192 208 195 126 127 130 126 121 118 119 126 123 137
148 154 163 139 153 125 295 296 327 85 133 147 151 154 167 176 177 177 176 173 172 170 171 169 166 162 165 165 160 154 155 150 149 145 142 168 195 166 136 123 118 106 105 110 115 109 113 106 103
154 148 97 112 142 199 299 282 232 203 174 160 163 164 171 171 173 173 175 175 175 173 170 165 164 165 165 166 165 163 162 157 151 143 139 136 157 135 132 128 121 114 102 104 110 110 107 102 90
117 105 110 120 146 150 204 267 228 197 181 173 176 172 169 169 170 171 173 172 169 163 160 163 163 159 161 163 160 157 155 155 148 149 154 148 130 129 138 139 133 123 108 104 100 104 108 103 91
152 160 144 147 193 158 160 262 263 192 183 169 168 165 163 165 168 169 169 164 161 164 165 167 168 166 168 164 158 158 151 146 146 153 156 142 135 126 124 125 122 120 112 107 109 112 106 105 106
Height
1493 1493 1494 1495 1498 1508 1511 1507 1501 1501 1504 1505 1504 1505 1508 1512 1517 1525 1523 1522 1521 1520 1519 1519 1518 1517 1516 1516 1515 1515 1514 1514 1513 1513 1514 1515 1516 1517 1518 1519 1520 1521 1522 1523 1524 1525 1527 1528 1529
1493 1494 1496 1497 1506 1520 1517 1506 1505 1505 1506 1506 1507 1509 1511 1516 1518 1521 1522 1523 1522 1521 1521 1520 1519 1519 1518 1517 1517 1517 1516 1516 1515 1515 1516 1517 1518 1519 1520 1521 1522 1523 1525 1526 1527 1529 1530 1531 1532
1494 1495 1497 1500 1509 1518 1516 1507 1506 1507 1508 1506 1510 1512 1515 1519 1521 1522 1523 1524 1523 1522 1522 1521 1521 1520 1520 1519 1519 1519 1518 1518 1517 1517 1518 1518 1519 1521 1522 1523 1525 1526 1527 1528 1530 1531 1533 1534 1535
1495 1497 1499 1505 1511 1506 1505 1506 1506 1508 1510 1510 1511 1516 1520 1523 1523 1524 1524 1525 1524 1524 1523 1523 1522 1522 1522 1521 1521 1521 1520 1520 1519 1520 1520 1521 1522 1523 1525 1526 1527 1528 1530 1531 1532 1534 1535 1536 1537
1496 1498 1504 1511 1509 1505 1503 1504 1505 1508 1511 1515 1514 1519 1524 1526 1525 1525 1526 1526 1526 1525 1525 1525 1524 1524 1524 1524 1523 1523 1522 1522 1522 1522 1522 1523 1524 1526 1527 1529 1530 1531 1532 1533 1535 1536 1537 1539 1540
1498 1499 1513 1518 1511 1506 1506 1506 1507 1511 1515 1518 1518 1521 1527 1528 1527 1527 1528 1528 1528 1527 1527 1527 1526 1526 1526 1526 1525 1525 1525 1525 1525 1525 1525 1526 1527 1529 1530 1531 1532 1533 1534 1535 1537 1538 1539 1540 1541
1499 1504 1512 1513 1512 1511 1510 1508 1509 1513 1517 1519 1520 1523 1528 1529 1529 1529 1530 1530 1530 1529 1529 1529 1529 1529 1528 1528 1528 1528 1528 1528 1528 1528 1529 1530 1530 1531 1533 1533 1534 1535 1537 1538 1539 1540 1541 1542 1543
1497 1503 1511 1512 1513 1513 1509 1509 1512 1513 1518 1521 1521 1524 1528 1530 1531 1531 1531 1532 1532 1532 1531 1531 1531 1531 1531 1531 1531 1531 1531 1531 1532 1532 1532 1533 1534 1534 1535 1536 1537 1538 1539 1540 1541 1542 1543 1544 1545
1497 1507 1515 1512 1512 1511 1508 1510 1515 1517 1518 1521 1523 1524 1528 1530 1531 1532 1533 1533 1533 1533 1534 1534 1533 1534 1534 1534 1534 1534 1534 1534 1535 1535 1535 1536 1537 1537 1538 1539 1540 1541 1541 1542 1543 1544 1545 1546 1546
1494 1508 1507 1501 1503 1506 1508 1511 1515 1519 1521 1524 1526 1528 1530 1531 1532 1533 1533 1534 1534 1534 1535 1535 1536 1536 1536 1536 1536 1536 1537 1537 1538 1538 1538 1539 1539 1540 1541 1541 1542 1543 1544 1544 1545 1545 1546 1547 1547
1492 1498 1497 1499 1501 1504 1509 1512 1515 1518 1523 1524 1525 1528 1530 1532 1533 1533 1534 1534 1535 1536 1536 1537 1537 1538 1538 1538 1538 1539 1539 1539 1540 1540 1541 1541 1541 1542 1543 1543 1544 1545 1545 1546 1546 1547 1547 1547 1548
1492 1494 1495 1500 1502 1505 1509 1513 1517 1518 1523 1524 1525 1528 1530 1532 1533 1534 1534 1535 1536 1536 1537 1537 1538 1539 1539 1540 1540 1540 1541 1541 1541 1542 1542 1543 1543 1543 1544 1544 1545 1546 1546 1547 1547 1548 1548 1548 1549
1494 1497 1498 1501 1503 1506 1510 1514 1517 1521 1524 1526 1528 1530 1531 1532 1534 1535 1535 1536 1536 1537 1538 1539 1540 1540 1540 1541 1541 1542 1542 1542 1543 1543 1544 1544 1544 1544 1545 1545 1546 1546 1547 1547 1548 1548 1549 1549 1549
1497 1499 1502 1503 1505 1509 1512 1517 1519 1524 1525 1527 1529 1530 1532 1533 1534 1535 1536 1536 1537 1537 1538 1539 1541 1541 1542 1542 1543 1543 1544 1544 1544 1545 1545 1545 1545 1545 1546 1546 1546 1547 1547 1548 1548 1548 1549 1549 1549
1497 1502 1506 1506 1507 1512 1514 1522 1521 1523 1526 1527 1529 1531 1532 1533 1534 1535 1535 1536 1537 1538 1539 1540 1541 1542 1543 1543 1544 1544 1545 1545 1545 1546 1546 1546 1546 1546 1546 1546 1547 1547 1548 1548 1548 1549 1549 1548 1549
1501 1510 1519 1511 1508 1512 1518 1532 1524 1524 1525 1527 1529 1530 1532 1533 1534 1535 1536 1536 1537 1538 1539 1540 1541 1542 1543 1543 1544 1545 1545 1546 1546 1546 1546 1547 1546 1546 1547 1547 1547 1547 1548 1548 1548 1549 1549 1548 1549
1512 1522 1522 1515 1508 1510 1517 1527 1523 1524 1524 1526 1528 1529 1530 1532 1534 1535 1536 1536 1537 1538 1539 1540 1541 1542 1543 1543 1544 1545 1545 1546 1546 1546 1546 1547 1547 1547 1547 1547 1547 1547 1548 1548 1548 1548 1548 1549 1549
1520 1519 1519 1517 1509 1510 1517 1521 1521 1523 1523 1525 1527 1528 1530 1531 1532 1534 1535 1536 1537 1538 1539 1540 1541 1542 1543 1544 1544 1545 1545 1546 1546 1546 1546 1546 1546 1547 1547 1547 1547 1547 1547 1547 1548 1548 1548 1548 1548
1506 1513 1517 1512 1505 1509 1516 1519 1519 1520 1522 1523 1525 1526 1528 1530 1532 1533 1535 1536 1537 1538 1539 1540 1541 1542 1542 1543 1544 1544 1545 1545 1545 1546 1546 1546 1546 1546 1546 1546 1546 1547 1547 1547 1547 1547 1548 1548 1548
1504 1512 1515 1509 1503 1507 1516 1518 1516 1518 1518 1519 1521 1523 1525 1528 1531 1532 1534 1535 1536 1537 1538 1539 1540 1541 1542 1543 1544 1544 1544 1545 1545 1545 1546 1546 1546 1546 1546 1545 1546 1546 1546 1546 1546 1547 1547 1547 1547
1505 1511 1511 1512 1507 1508 1517 1526 1521 1518 1519 1520 1521 1522 1524 1525 1528 1530 1532 1533 1535 1536 1537 1538 1540 1541 1542 1543 1543 1544 1544 1544 1545 1545 1545 1545 1546 1545 1545 1545 1545 1545 1545 1545 1545 1546 1546 1546 1547
1509 1497 1500 1506 1518 1527 1523 1544 1527 1520 1519 1519 1520 1521 1522 1524 1525 1528 1530 1532 1533 1535 1537 1538 1539 1540 1541 1542 1542 1543 1543 1543 1544 1544 1544 1544 1545 1544 1544 1544 1544 1544 1544 1544 1544 1544 1545 1545 1545
1497 1491 1497 1504 1516 1527 1525 1538 1532 1520 1522 1518 1517 1518 1518 1521 1523 1525 1528 1530 1532 1534 1536 1537 1539 1539 1540 1541 1542 1542 1542 1543 1543 1543 1543 1543 1544 1543 1543 1543 1543 1543 1543 1543 1543 1543 1543 1544 1544
1487 1496 1505 1514 1524 1540 1527 1534 1534 1520 1513 1511 1513 1515 1517 1519 1521 1524 1527 1529 1531 1533 1535 1537 1538 1539 1540 1541 1541 1542 1542 1542 1543 1543 1543 1543 1543 1543 1542 1542 1542 1542 1542 1542 1542 1542 1542 1543 1543
1491 1515 1538 1544 1550 1544 1523 1527 1526 1505 1501 1503 1506 1510 1514 1517 1520 1522 1525 1527 1530 1532 1533 1535 1537 1538 1539 1540 1540 1541 1541 1542 1542 1542 1542 1542 1542 1542 1541 1541 1541 1541 1541 1541 1541 1541 1541 1542 1542
1494 1509 1537 1551 1553 1543 1525 1527 1513 1495 1497 1500 1503 1507 1511 1515 1517 1519 1522 1525 1527 1530 1532 1534 1535 1537 1538 1539 1539 1540 1541 1541 1541 1541 1541 1541 1541 1541 1541 1540 1540 1540 1540 1540 1540 1540 1540 1540 1540
1493 1504 1507 1528 1536 1543 1535 1520 1506 1496 1498 1500 1503 1506 1509 1512 1515 1517 1520 1523 1525 1528 1530 1532 1534 1536 1537 1538 1539 1540 1540 1540 1540 1541 1541 1540 1540 1540 1539 1539 1539 1539 1539 1539 1539 1539 1539 1539 1539
1482 1492 1513 1529 1546 1551 1538 1529 1522 1506 1503 1500 1501 1504 1506 1509 1512 1515 1518 1521 1524 1526 1528 1530 1533 1534 1536 1537 1538 1539 1539 1540 1540 1540 1540 1539 1539 1539 1539 1538 1538 1538 1538 1538 1538 1538 1538 1538 1538
1487 1495 1509 1525 1530 1546 1550 1535 1501 1499 1497 1498 1499 1501 1503 1506 1509 1513 1516 1518 1522 1524 1527 1529 1531 1533 1535 1536 1537 1538 1538 1539 1539 1539 1539 1539 1538 1538 1538 1538 1538 1538 1538 1538 1537 1537 1537 1537 1537
1481 1490 1504 1523 1529 1532 1539 1530 1491 1493 1493 1494 1496 1498 1502 1505 1508 1511 1514 1516 1519 1522 1525 1527 1530 1531 1533 1535 1536 1537 1538 1538 1538 1538 1538 1538 1538 1538 1537 1537 1537 1537 1537 1537 1537 1537 1537 1536 1536